This is the latest recevied weather packets stored in our database for station/object KD8DNS. If no packets are shown the sender has not sent any weather packets the latest 10 day(s).
| Time | Temp. | Humidity | Pressure | Rain* | Wind** | Luminosity | Snow |
|---|---|---|---|---|---|---|---|
| 1788385202 | 35° C | 51% | 1019.3 hPa | 0 mm | - | 55 W/m² | - |
| 1788384898 | 35° C | 54% | 1019.1 hPa | 0 mm | - | 67 W/m² | - |
| 1788384596 | 35° C | 52% | 1019.2 hPa | 0 mm | - | 72 W/m² | - |
| 1788384292 | 35° C | 51% | 1019 hPa | 0 mm | - | 69 W/m² | - |
| 1788383989 | 35° C | 52% | 1019.2 hPa | 0 mm | - | 150 W/m² | - |
| 1788383685 | 35° C | 53% | 1019.2 hPa | 0 mm | - | 248 W/m² | - |
| 1788383385 | 35° C | 52% | 1019.2 hPa | 0 mm | - | 74 W/m² | - |
| 1788383080 | 35° C | 51% | 1019.2 hPa | 0 mm | - | 71 W/m² | - |
| 1788382778 | 35° C | 52% | 1019.3 hPa | 0 mm | - | 208 W/m² | - |
| 1788382473 | 35° C | 52% | 1019.3 hPa | 0 mm | - | 67 W/m² | - |
| 1788382169 | 35° C | 52% | 1019.5 hPa | 0 mm | - | 68 W/m² | - |
| 1788381868 | 35° C | 53% | 1019.2 hPa | 0 mm | - | 72 W/m² | - |
| 1788381564 | 35° C | 52% | 1019.4 hPa | 0 mm | - | 279 W/m² | - |
| 1788381259 | 35° C | 54% | 1019.4 hPa | 0 mm | - | 399 W/m² | - |
| 1788380958 | 35° C | 51% | 1019.5 hPa | 0 mm | - | 97 W/m² | - |
| 1788380654 | 35° C | 52% | 1019.5 hPa | 0 mm | - | 459 W/m² | - |
| 1788380351 | 35° C | 53% | 1019.5 hPa | 0 mm | - | 438 W/m² | - |
| 1788380051 | 35.56° C | 51% | 1019.7 hPa | 0 mm | - | 81 W/m² | - |
| 1788379745 | 35.56° C | 51% | 1019.6 hPa | 0 mm | - | 303 W/m² | - |
| 1788379441 | 35.56° C | 53% | 1019.6 hPa | 0 mm | - | 487 W/m² | - |
| 1788379136 | 35.56° C | 49% | 1019.7 hPa | 0 mm | - | 517 W/m² | - |
| 1788378836 | 35.56° C | 50% | 1019.8 hPa | 0 mm | - | 529 W/m² | - |
| 1788378531 | 35.56° C | 50% | 1020 hPa | 0 mm | - | 561 W/m² | - |
| 1788378225 | 35.56° C | 50% | 1019.8 hPa | 0 mm | - | 538 W/m² | - |
| 1788377920 | 35.56° C | 48% | 1020 hPa | 0 mm | - | 496 W/m² | - |
* Rain latest hour (hover to see other rain measurements)
** Current wind speed in m/s (hover to see current wind gust speed)